RCM 1

导读

RCM 1是加拿大(CA)研制的雷达卫星星座首星,于2019年6月12日成功发射。该卫星属于加拿大RadarSat Constellation Mission(RCM)项目,主要用于海事监测、北极观测、灾害管理与资源勘探,搭载先进合成孔径雷达,可全天时全天候获取地球观测数据。它与后续两颗卫星组网,重访能力显著提升,为全球气候变化研究、国土测绘和安全监测提供高分辨率遥感信息,设计服役寿命超7年,至今仍在轨稳定运行。

基本信息
目录编号:
44322
目录名称:
RCM 1
国际标识:
2019-033A
轨道中心:
EARTH
卫星名称:
RCM 1
卫星全名:
--
卫星状态:
在轨 (已飞行2560 天)
发射日期:
2019-06-12 UTC
国别 :
加拿大 (CA)
星等 :
--
轨道信息
数据来源 国际轨道数据 AOE轨道数据
星历时间 2026-06-15T09:21:11+0800
6小时前
查看轨道信息
2026-06-15T12:00:00+0800
3小时前
查看轨道信息
半长轴 6968.008km 6967.997km
偏心率 0.0001428 0.0001692
轨道倾角 97.761° 97.759°
近地点辐角 90.968° 89.365°
升交点赤经 173.531° 173.641°
平近点角 269.171° 143.023°
近地点 588.875km 588.681km
远地点 590.867km 591.039km
周期 96.477分钟 96.477分钟
每日圈数 14.925876 14.925912
详细信息
使用方式:
暂无
2D轨道图
3D轨道图
轨道高度分析图
轨道倾角分析图
轨道综合分析图
查看轨道综合分析图